Tucson Davis Monthan, AZ

4:17 AM MST on September 21, 2019 (GMT -0700)
Davis-Monthan Air Force Base

Weather History for KDMA - August, 2019

Change the Weather History Date:

Sunday, August 25, 2019

  Actual Average Record
Temperature  
Mean Temperature 86 °F -  
Max Temperature 99 °F 96 °F 106 °F (1985)
Min Temperature 73 °F 70 °F 65 °F (1982)
Cooling Degree Days 21    
Growing Degree Days 36 (Base 50)    
Moisture  
Dew Point 62 °F    
Average Humidity 47    
Maximum Humidity 78    
Minimum Humidity 26    
Precipitation  
Precipitation 0.00 in - - ()
Sea Level Pressure  
Sea Level Pressure 29.98 in    
Wind  
Wind Speed 5 mph (SSW)    
Max Wind Speed 8 mph    
Max Gust Speed -    
Visibility 10 miles    
Events      
Averages and records for this station are not official NWS values.
T = Trace of Precipitation, MM = Missing Value Source: NWS Daily Summary

Daily Weather History Graph

Daily Weather History Graph

Search for Another Location

Airport or City:

Astronomy

Aug. 25, 2019 Rise Set
Actual Time 5:54 AM MST 6:56 PM MST
Civil Twilight 5:28 AM MST 7:21 PM MST
Nautical Twilight 4:58 AM MST 7:51 PM MST
Astronomical Twilight 4:28 AM MST 8:22 PM MST
Moon 12:42 AM MST (8/25) 3:09 PM MST (8/25)
Length of Visible Light 13h 52m
Length of Day
13h 02m
Waning Crescent, 28% of the Moon is Illuminated
Aug 25
Waning Crescent
Aug 30
New
Sep 5
First Quarter
Sep 13
Full
Sep 21
Last Quarter

Hourly Weather History & Observations

Time (MST) Temp. Heat Index Dew Point Humidity Pressure Visibility Wind Dir Wind Speed Gust Speed Precip Events Conditions
12:58 AM 80.6 °F 82.7 °F 66.2 °F 61% 30.09 in 10.0 mi Variable 6.9 mph - N/A   Clear
1:58 AM 78.8 °F - 66.2 °F 65% 30.08 in 10.0 mi South 5.8 mph - N/A   Clear
2:58 AM 73.4 °F - 62.6 °F 69% 30.08 in 10.0 mi SSW 4.6 mph - N/A   Clear
2:59 AM 84.2 °F 85.6 °F 64.4 °F 51% 30.10 in 10.0 mi NNW 4.6 mph - N/A   Scattered Clouds
3:59 AM 73.4 °F - 62.6 °F 69% 30.08 in 10.0 mi SSW 5.8 mph - N/A   Clear
4:56 AM 73.4 °F - 66.2 °F 78% 30.09 in 10.0 mi South 4.6 mph - N/A   Partly Cloudy
5:58 AM 73.4 °F - 66.2 °F 78% 30.09 in 10.0 mi SSW 5.8 mph - N/A   Scattered Clouds
6:55 AM 75.2 °F - 66.2 °F 73% 30.10 in 10.0 mi Variable 5.8 mph - N/A   Scattered Clouds
7:59 AM 80.6 °F 82.3 °F 64.4 °F 58% 30.11 in 10.0 mi Variable 3.5 mph - N/A   Scattered Clouds
8:56 AM 82.4 °F 83.9 °F 64.4 °F 54% 30.11 in 10.0 mi Variable 3.5 mph - N/A   Scattered Clouds
9:59 AM 84.2 °F 85.6 °F 64.4 °F 51% 30.10 in 10.0 mi NNW 4.6 mph - N/A   Mostly Cloudy
10:59 AM 87.8 °F 89.4 °F 64.4 °F 46% 30.09 in 10.0 mi Variable 4.6 mph - N/A   Mostly Cloudy
11:59 AM 91.4 °F 95.4 °F 68.0 °F 46% 30.09 in 10.0 mi NNW 8.1 mph - N/A   Scattered Clouds
12:58 PM 98.6 °F 109.2 °F 73.4 °F 44% 30.07 in 10.0 mi Variable 6.9 mph - N/A   Scattered Clouds
1:58 PM 98.6 °F 99.4 °F 60.8 °F 29% 30.04 in 10.0 mi Variable 6.9 mph - N/A   Scattered Clouds
2:58 PM 98.6 °F 99.4 °F 60.8 °F 29% 30.02 in 10.0 mi Variable 6.9 mph - N/A   Scattered Clouds
3:58 PM 99.3 °F 99.6 °F 59.4 °F 27% 29.75 in 10.0 mi Variable 2.3 mph - N/A   Scattered Clouds
4:58 PM 98.8 °F 98.3 °F 58.8 °F 26% 29.79 in 10.0 mi Variable 2.3 mph - N/A   Clear
5:58 PM 95.5 °F 94.4 °F 57.4 °F 28% 29.79 in 10.0 mi Variable 3.5 mph - N/A   Clear
6:58 PM 92.8 °F 91.7 °F 57.7 °F 31% 29.80 in 10.0 mi Variable 2.3 mph - N/A   Clear
7:58 PM 91.4 °F 89.9 °F 57.0 °F 31% 29.82 in 10.0 mi SSE 1.2 mph - N/A   Clear
8:58 PM 90.3 °F 89.0 °F 57.2 °F 33% 29.82 in 10.0 mi Variable 1.2 mph - N/A   Clear
9:58 PM 89.1 °F 87.5 °F 56.8 °F 33% 29.81 in 10.0 mi Calm Calm - N/A   Clear
10:58 PM 88.0 °F 86.7 °F 57.0 °F 35% 29.80 in 10.0 mi Calm Calm - N/A   Clear
11:58 PM 86.0 °F 85.2 °F 58.1 °F 39% 29.80 in 10.0 mi East 4.6 mph - N/A   Clear